星链-5786 (STARLINK-5786 )

导读

STARLINK-5786是美国太空探索技术公司(SpaceX)星链(Starlink)卫星互联网项目中的卫星,于2023年3月24日发射升空,归属发射国家美国。它属于星链星座组网卫星,星链项目旨在构建全球卫星互联网星座,为全球多个区域提供高速网络服务,该卫星是星链大规模部署进程中的组成单元。

基本信息
目录编号:
56032
目录名称:
STARLINK-5786
国际标识:
2023-042AY
轨道中心:
EARTH
卫星名称:
星链-5786
卫星全名:
星链-5786 (STARLINK-5786 )
卫星状态:
在轨 (已飞行1261 天)
发射日期:
2023-03-24 UTC
国别 :
美国 (US)
星等 :
--
轨道信息
数据来源 国际轨道数据 AOE轨道数据
星历时间 2026-09-04T23:37:50+0800
15小时前
查看轨道信息
2026-08-30T00:00:00+0800
6天前
查看轨道信息
半长轴 6861.196km 6861.197km
偏心率 0.0001574 0.0002111
轨道倾角 43.002° 42.999°
近地点辐角 252.940° 233.764°
升交点赤经 114.685° 148.487°
平近点角 107.128° 296.642°
近地点 481.979km 481.611km
远地点 484.139km 484.509km
周期 94.267分钟 94.267分钟
每日圈数 15.275768 15.275764
详细信息
固有亮度:
5
最大亮度:
2.5
卫星平台:
Starlink v1.5
覆盖范围:
全球
运营商:
太空探索技术公司
运营商所在国:
美国
制造商(研发单位):
太空探索技术公司
制造商所在国:
美国
使用方式:
暂无
卫星简介
星链(Starlink)计划是由太空探索技术公司(SpaceX)提出的一个巨型低轨卫星互联网星座项目,计划在2019年至2024年间在太空搭建由约1.2万颗卫星组成的“星链”网络,其中1584颗将部署在地球上空550千米处的近地轨道,并从2020年开始工作。该卫星仍在工作。
2D轨道图
3D轨道图
轨道高度分析图
轨道倾角分析图
轨道综合分析图
查看轨道综合分析图
交会数据列表
事件ID 空间交会对象 最接近时刻(TCA) 交会距离 交会风险概率(CRP) 交会风险指数(CRI) 操作
CDM_260905-061805-307805-603221
2026-09-05T
06:18:39+0000
0.942 km
远距离
2.276844E-5 中风险 0.62
CDM_260906-175405-603206-436021
2026-09-06T
17:54:39+0000
2.154 km
极远距离
2.163639E-6 低风险 0.42
CDM_260903-083805-603206-074922
OBJECT E (60749)
2026-09-03T
08:38:27+0000
2.355 km
极远距离
1.703427E-6 低风险 0.4
CDM_260903-044205-603206-074922
OBJECT E (60749)
2026-09-03T
04:42:51+0000
2.642 km
极远距离
1.393665E-6 低风险 0.38